Hourly Weather Kitino

Today, 30 July, Friday

Time Temperature Precipitation Wind Pressure Humidity
00:00 +17°C° 0 mm 2 mps 742 mmHg 87%
01:00 +17°C° 0 mm 2 mps 742 mmHg 89%
02:00 +16°C° 0 mm 2 mps 742 mmHg 91%
03:00 +16°C° 0 mm 2 mps 742 mmHg 90%
04:00 +16°C° 0 mm 2 mps 741 mmHg 88%
05:00 +17°C° 0 mm 2 mps 741 mmHg 87%
06:00 +17°C° 0 mm 3 mps 741 mmHg 80%
07:00 +18°C° 0 mm 3 mps 741 mmHg 74%
08:00 +19°C° 0 mm 4 mps 741 mmHg 67%
09:00 +20°C° 0 mm 4 mps 741 mmHg 58%
10:00 +22°C° 0 mm 5 mps 741 mmHg 50%
11:00 +23°C° 0 mm 5 mps 741 mmHg 41%
12:00 +25°C° 0 mm 5 mps 740 mmHg 40%
13:00 +25°C° 0 mm 5 mps 740 mmHg 40%
14:00 +25°C° 0 mm 4 mps 740 mmHg 39%
15:00 +23°C° 0 mm 5 mps 740 mmHg 43%
16:00 +22°C° 0 mm 5 mps 739 mmHg 46%
17:00 +22°C° 0 mm 5 mps 739 mmHg 50%
18:00 +21°C° 0 mm 5 mps 739 mmHg 51%
19:00 +20°C° 0 mm 5 mps 738 mmHg 52%
20:00 +20°C° 0 mm 5 mps 738 mmHg 53%
21:00 +19°C° 0.3 mm 6 mps 738 mmHg 61%
22:00 +17°C° 0.3 mm 6 mps 737 mmHg 70%
23:00 +15°C° 0.3 mm 7 mps 737 mmHg 79%

Tomorrow, 31 July, Saturday

Time Temperature Precipitation Wind Pressure Humidity
00:00 +15°C° 1.1 mm 6 mps 737 mmHg 84%
01:00 +15°C° 1.1 mm 6 mps 736 mmHg 89%
02:00 +14°C° 1.1 mm 6 mps 736 mmHg 94%
03:00 +14°C° 0.1 mm 5 mps 736 mmHg 94%
04:00 +14°C° 0.1 mm 5 mps 737 mmHg 95%
05:00 +14°C° 0.1 mm 4 mps 737 mmHg 95%
06:00 +15°C° 0.1 mm 5 mps 737 mmHg 90%
07:00 +16°C° 0.1 mm 5 mps 737 mmHg 86%
08:00 +17°C° 0.1 mm 5 mps 738 mmHg 81%
09:00 +20°C° 0.1 mm 5 mps 738 mmHg 70%
10:00 +22°C° 0.1 mm 5 mps 739 mmHg 60%
11:00 +23°C° 0.1 mm 5 mps 739 mmHg 49%
12:00 +23°C° 0.1 mm 5 mps 739 mmHg 53%
13:00 +23°C° 0.1 mm 5 mps 740 mmHg 56%
14:00 +23°C° 0.1 mm 5 mps 740 mmHg 60%
15:00 +22°C° 0.3 mm 5 mps 740 mmHg 65%
16:00 +22°C° 0.3 mm 5 mps 741 mmHg 69%
17:00 +22°C° 0.3 mm 5 mps 741 mmHg 73%
18:00 +21°C° 0.2 mm 4 mps 741 mmHg 78%
19:00 +19°C° 0.2 mm 4 mps 741 mmHg 84%
20:00 +18°C° 0.2 mm 3 mps 741 mmHg 89%
21:00 +18°C° 0.1 mm 3 mps 742 mmHg 91%
22:00 +17°C° 0.1 mm 2 mps 742 mmHg 93%
23:00 +16°C° 0.1 mm 2 mps 742 mmHg 95%

Day after tomorrow, 1 August, Sunday

Time Temperature Precipitation Wind Pressure Humidity
00:00 +16°C° 0 mm 2 mps 741 mmHg 95%
01:00 +16°C° 0 mm 2 mps 741 mmHg 95%
02:00 +16°C° 0 mm 2 mps 741 mmHg 95%
03:00 +16°C° 0.2 mm 2 mps 741 mmHg 95%
04:00 +16°C° 0.2 mm 3 mps 741 mmHg 95%
05:00 +16°C° 0.2 mm 3 mps 741 mmHg 95%
06:00 +17°C° 0.4 mm 3 mps 741 mmHg 94%
07:00 +17°C° 0.4 mm 4 mps 740 mmHg 93%
08:00 +18°C° 0.4 mm 4 mps 740 mmHg 93%
09:00 +19°C° 0.1 mm 4 mps 740 mmHg 84%
10:00 +20°C° 0.1 mm 5 mps 741 mmHg 76%
11:00 +21°C° 0.1 mm 5 mps 741 mmHg 68%
12:00 +22°C° 0.1 mm 5 mps 741 mmHg 63%
13:00 +23°C° 0.1 mm 5 mps 741 mmHg 57%
14:00 +24°C° 0.1 mm 6 mps 741 mmHg 52%
15:00 +25°C° 0 mm 5 mps 741 mmHg 53%
16:00 +25°C° 0 mm 5 mps 741 mmHg 53%
17:00 +25°C° 0 mm 5 mps 741 mmHg 53%
18:00 +22°C° 0 mm 4 mps 742 mmHg 58%
19:00 +21°C° 0 mm 3 mps 742 mmHg 63%
20:00 +20°C° 0 mm 3 mps 742 mmHg 68%
21:00 +19°C° 0 mm 3 mps 742 mmHg 74%
22:00 +17°C° 0 mm 2 mps 742 mmHg 80%
23:00 +16°C° 0 mm 2 mps 742 mmHg 85%

2 August, Monday

Time Temperature Precipitation Wind Pressure Humidity
00:00 +16°C° 0 mm 2 mps 742 mmHg 85%
01:00 +15°C° 0 mm 2 mps 743 mmHg 85%
02:00 +15°C° 0 mm 2 mps 743 mmHg 85%
03:00 +15°C° 0 mm 2 mps 743 mmHg 86%
04:00 +15°C° 0 mm 2 mps 743 mmHg 87%
05:00 +15°C° 0 mm 2 mps 743 mmHg 88%
06:00 +16°C° 0 mm 2 mps 743 mmHg 80%
07:00 +18°C° 0 mm 2 mps 743 mmHg 72%
08:00 +19°C° 0 mm 3 mps 742 mmHg 64%
09:00 +20°C° 0 mm 3 mps 742 mmHg 60%
10:00 +21°C° 0 mm 3 mps 742 mmHg 56%
11:00 +21°C° 0 mm 2 mps 742 mmHg 53%
12:00 +21°C° 0 mm 2 mps 742 mmHg 53%
13:00 +21°C° 0 mm 2 mps 742 mmHg 52%
14:00 +21°C° 0 mm 2 mps 741 mmHg 52%
15:00 +21°C° 0 mm 2 mps 741 mmHg 55%
16:00 +21°C° 0 mm 2 mps 741 mmHg 57%
17:00 +22°C° 0 mm 1 mps 741 mmHg 60%
18:00 +19°C° 0 mm 2 mps 741 mmHg 66%
19:00 +18°C° 0 mm 2 mps 741 mmHg 72%
20:00 +17°C° 0 mm 2 mps 741 mmHg 78%
21:00 +16°C° 0.2 mm 2 mps 741 mmHg 83%
22:00 +16°C° 0.2 mm 2 mps 741 mmHg 89%
23:00 +15°C° 0.2 mm 2 mps 741 mmHg 94%

3 August, Tuesday

Time Temperature Precipitation Wind Pressure Humidity
00:00 +14°C° 0.1 mm 2 mps 741 mmHg 95%
01:00 +14°C° 0.1 mm 2 mps 741 mmHg 96%
02:00 +13°C° 0.1 mm 3 mps 742 mmHg 97%
03:00 +12°C° 0 mm 3 mps 742 mmHg 97%
04:00 +12°C° 0 mm 3 mps 742 mmHg 96%
05:00 +12°C° 0 mm 3 mps 742 mmHg 96%
06:00 +13°C° 0 mm 3 mps 743 mmHg 89%
07:00 +14°C° 0 mm 4 mps 743 mmHg 83%
08:00 +17°C° 0 mm 4 mps 744 mmHg 76%
09:00 +18°C° 0 mm 4 mps 744 mmHg 66%
10:00 +19°C° 0 mm 5 mps 744 mmHg 57%
11:00 +20°C° 0 mm 5 mps 745 mmHg 47%
12:00 +20°C° 0 mm 5 mps 745 mmHg 46%
13:00 +21°C° 0 mm 5 mps 745 mmHg 44%
14:00 +21°C° 0 mm 5 mps 746 mmHg 42%
15:00 +21°C° 0 mm 4 mps 746 mmHg 43%
16:00 +21°C° 0 mm 4 mps 746 mmHg 44%
17:00 +20°C° 0 mm 3 mps 747 mmHg 45%
18:00 +19°C° 0 mm 2 mps 747 mmHg 53%
19:00 +17°C° 0 mm 2 mps 748 mmHg 61%
20:00 +15°C° 0 mm 2 mps 748 mmHg 69%
21:00 +15°C° 0 mm 1 mps 748 mmHg 71%
22:00 +14°C° 0 mm 1 mps 749 mmHg 74%
23:00 +13°C° 0 mm 1 mps 749 mmHg 77%

4 August, Wednesday

Time Temperature Precipitation Wind Pressure Humidity
00:00 +12°C° 0 mm 1 mps 750 mmHg 79%
01:00 +12°C° 0 mm 1 mps 750 mmHg 81%
02:00 +11°C° 0 mm 1 mps 750 mmHg 83%
03:00 +11°C° 0 mm 1 mps 751 mmHg 84%
04:00 +11°C° 0 mm 1 mps 751 mmHg 84%
05:00 +11°C° 0 mm 1 mps 751 mmHg 84%
06:00 +13°C° 0 mm 1 mps 751 mmHg 75%
07:00 +16°C° 0 mm 1 mps 752 mmHg 66%
08:00 +19°C° 0 mm 1 mps 752 mmHg 57%
09:00 +20°C° 0 mm 1 mps 752 mmHg 52%
10:00 +21°C° 0 mm 1 mps 752 mmHg 47%
11:00 +23°C° 0 mm 1 mps 752 mmHg 42%
12:00 +23°C° 0 mm 1 mps 752 mmHg 40%
13:00 +24°C° 0 mm 1 mps 752 mmHg 38%
14:00 +24°C° 0 mm 1 mps 752 mmHg 36%
15:00 +24°C° 0 mm 1 mps 752 mmHg 39%
16:00 +23°C° 0 mm 2 mps 752 mmHg 42%
17:00 +21°C° 0 mm 2 mps 752 mmHg 45%
18:00 +20°C° 0 mm 2 mps 752 mmHg 51%
19:00 +19°C° 0 mm 2 mps 752 mmHg 56%
20:00 +18°C° 0 mm 2 mps 752 mmHg 62%
21:00 +17°C° 0 mm 2 mps 752 mmHg 63%
22:00 +17°C° 0 mm 2 mps 752 mmHg 63%
23:00 +17°C° 0 mm 2 mps 752 mmHg 64%
Show more